contact:dominique.lefevre@mio.osupytheas.fr, maurice.libes@osupytheas.fr, didier.mallarino@osupytheas.fr
Project:EMSO http://www.emso-fr.org/EMSO-France
Depth: 2436.0 m
Title:EMSO Ligure Ouest : Data MII capteur MICROCAT
DateTime_Computer,Latitude,Longitude,Temperature,Conductivity,Pressure,DateTime_Instrument
DateTime_Computer,Latitude,Longitude,degC,S m-1,dbar,DateTime_Instrument
2017-10-31T00:01:20Z,42.805,6.029,13.2966,4.59975,2471.979,2017-10-31T02:02:46Z
2017-10-31T00:02:55Z,42.805,6.029,13.2973,4.59979,2472.024,2017-10-31T02:04:21Z
2017-10-31T00:04:29Z,42.805,6.029,13.2958,4.59973,2471.987,2017-10-31T02:05:55Z
2017-10-31T00:06:04Z,42.805,6.029,13.2960,4.59978,2472.016,2017-10-31T02:07:30Z
2017-10-31T00:07:39Z,42.805,6.029,13.2957,4.59980,2471.979,2017-10-31T02:09:05Z
2017-10-31T00:09:14Z,42.805,6.029,13.2958,4.59975,2472.002,2017-10-31T02:10:40Z
2017-10-31T00:10:49Z,42.805,6.029,13.2963,4.59977,2471.964,2017-10-31T02:12:15Z
2017-10-31T00:12:24Z,42.805,6.029,13.2954,4.59978,2471.994,2017-10-31T02:13:50Z
2017-10-31T00:13:58Z,42.805,6.029,13.2955,4.59976,2471.987,2017-10-31T02:15:24Z
2017-10-31T00:15:33Z,42.805,6.029,13.2957,4.59975,2472.01,2017-10-31T02:16:59Z
2017-10-31T00:17:08Z,42.805,6.029,13.2951,4.59975,2472.024,2017-10-31T02:18:34Z
2017-10-31T00:18:43Z,42.805,6.029,13.2957,4.59975,2472.002,2017-10-31T02:20:09Z
2017-10-31T00:20:18Z,42.805,6.029,13.2961,4.59978,2472.002,2017-10-31T02:21:44Z
2017-10-31T00:21:53Z,42.805,6.029,13.2952,4.59984,2471.987,2017-10-31T02:23:19Z
2017-10-31T00:23:27Z,42.805,6.029,13.2956,4.59974,2472.002,2017-10-31T02:24:53Z
2017-10-31T00:25:02Z,42.805,6.029,13.2968,4.59977,2471.979,2017-10-31T02:26:28Z
2017-10-31T00:26:37Z,42.805,6.029,13.2982,4.59972,2472.002,2017-10-31T02:28:03Z
2017-10-31T00:28:12Z,42.805,6.029,13.2956,4.59975,2472.002,2017-10-31T02:29:38Z
2017-10-31T00:29:47Z,42.805,6.029,13.2964,4.59979,2471.979,2017-10-31T02:31:13Z
2017-10-31T00:31:22Z,42.805,6.029,13.2965,4.59975,2471.964,2017-10-31T02:32:48Z
2017-10-31T00:32:56Z,42.805,6.029,13.2962,4.59975,2471.987,2017-10-31T02:34:22Z
2017-10-31T00:34:31Z,42.805,6.029,13.2963,4.59975,2472.024,2017-10-31T02:35:57Z
2017-10-31T00:36:06Z,42.805,6.029,13.2962,4.59977,2472.002,2017-10-31T02:37:32Z
2017-10-31T00:37:41Z,42.805,6.029,13.2962,4.59983,2472.002,2017-10-31T02:39:07Z
2017-10-31T00:39:16Z,42.805,6.029,13.2961,4.59979,2471.979,2017-10-31T02:40:42Z
2017-10-31T00:40:51Z,42.805,6.029,13.2963,4.59979,2472.024,2017-10-31T02:42:17Z
2017-10-31T00:42:25Z,42.805,6.029,13.2965,4.59976,2471.964,2017-10-31T02:43:51Z
2017-10-31T00:44:00Z,42.805,6.029,13.2961,4.59978,2472.024,2017-10-31T02:45:26Z
2017-10-31T00:45:35Z,42.805,6.029,13.2964,4.59978,2472.002,2017-10-31T02:47:01Z
2017-10-31T00:47:10Z,42.805,6.029,13.2959,4.59979,2472.002,2017-10-31T02:48:36Z
2017-10-31T00:48:45Z,42.805,6.029,13.2957,4.59989,2471.979,2017-10-31T02:50:11Z
2017-10-31T00:50:20Z,42.805,6.029,13.2951,4.59972,2472.047,2017-10-31T02:51:46Z
2017-10-31T00:51:54Z,42.805,6.029,13.2951,4.59986,2472.002,2017-10-31T02:53:20Z
2017-10-31T00:53:29Z,42.805,6.029,13.2958,4.59972,2472.002,2017-10-31T02:54:55Z
2017-10-31T00:55:04Z,42.805,6.029,13.2952,4.59975,2472.024,2017-10-31T02:56:30Z
2017-10-31T00:56:39Z,42.805,6.029,13.2963,4.59989,2472.024,2017-10-31T02:58:05Z
2017-10-31T00:58:14Z,42.805,6.029,13.2961,4.59972,2472.01,2017-10-31T02:59:40Z
2017-10-31T00:59:49Z,42.805,6.029,13.2964,4.59978,2472.01,2017-10-31T03:01:15Z
2017-10-31T01:01:23Z,42.805,6.029,13.2956,4.59975,2472.01,2017-10-31T03:02:49Z
2017-10-31T01:02:58Z,42.805,6.029,13.2953,4.59975,2472.002,2017-10-31T03:04:24Z
2017-10-31T01:04:33Z,42.805,6.029,13.2965,4.59971,2472.047,2017-10-31T03:05:59Z
2017-10-31T01:06:08Z,42.805,6.029,13.2953,4.59981,2472.002,2017-10-31T03:07:34Z
2017-10-31T01:07:43Z,42.805,6.029,13.2961,4.59972,2472.024,2017-10-31T03:09:09Z
2017-10-31T01:09:18Z,42.805,6.029,13.2959,4.59987,2472.024,2017-10-31T03:10:44Z
2017-10-31T01:10:52Z,42.805,6.029,13.2954,4.59983,2472.024,2017-10-31T03:12:18Z
2017-10-31T01:12:27Z,42.805,6.029,13.2970,4.60039,2471.979,2017-10-31T03:13:53Z
2017-10-31T01:14:02Z,42.805,6.029,13.2966,4.59989,2472.024,2017-10-31T03:15:28Z
2017-10-31T01:15:37Z,42.805,6.029,13.2975,4.59988,2472.024,2017-10-31T03:17:03Z
2017-10-31T01:17:12Z,42.805,6.029,13.2964,4.59975,2472.024,2017-10-31T03:18:38Z
2017-10-31T01:18:47Z,42.805,6.029,13.2957,4.59984,2472.002,2017-10-31T03:20:13Z
2017-10-31T01:20:22Z,42.805,6.029,13.2959,4.59982,2472.002,2017-10-31T03:21:47Z
2017-10-31T01:21:56Z,42.805,6.029,13.2968,4.59978,2472.024,2017-10-31T03:23:22Z
2017-10-31T01:23:31Z,42.805,6.029,13.2959,4.59998,2472.047,2017-10-31T03:24:57Z
2017-10-31T01:25:06Z,42.805,6.029,13.2973,4.59986,2472.047,2017-10-31T03:26:32Z
2017-10-31T01:26:41Z,42.805,6.029,13.2960,4.59986,2472.01,2017-10-31T03:28:07Z
2017-10-31T01:28:16Z,42.805,6.029,13.2959,4.59977,2472.024,2017-10-31T03:29:42Z
2017-10-31T01:29:51Z,42.805,6.029,13.2958,4.59977,2472.024,2017-10-31T03:31:17Z
2017-10-31T01:31:25Z,42.805,6.029,13.2979,4.59975,2472.024,2017-10-31T03:32:51Z
2017-10-31T01:33:00Z,42.805,6.029,13.2967,4.59978,2472.047,2017-10-31T03:34:26Z
2017-10-31T01:34:35Z,42.805,6.029,13.2955,4.59971,2472.047,2017-10-31T03:36:01Z
2017-10-31T01:36:10Z,42.805,6.029,13.2961,4.59975,2472.024,2017-10-31T03:37:36Z
2017-10-31T01:37:45Z,42.805,6.029,13.2968,4.59970,2472.01,2017-10-31T03:39:11Z
2017-10-31T01:39:20Z,42.805,6.029,13.2951,4.59992,2472.047,2017-10-31T03:40:46Z
2017-10-31T01:40:54Z,42.805,6.029,13.2966,4.59972,2472.024,2017-10-31T03:42:20Z
2017-10-31T01:42:29Z,42.805,6.029,13.2968,4.60001,2472.01,2017-10-31T03:43:55Z
2017-10-31T01:44:04Z,42.805,6.029,13.2958,4.59975,2472.032,2017-10-31T03:45:30Z
2017-10-31T01:45:39Z,42.805,6.029,13.2952,4.59984,2472.047,2017-10-31T03:47:05Z
2017-10-31T01:47:14Z,42.805,6.029,13.2959,4.59973,2472.047,2017-10-31T03:48:40Z
2017-10-31T01:48:49Z,42.805,6.029,13.2954,4.59972,2472.032,2017-10-31T03:50:15Z
2017-10-31T01:50:23Z,42.805,6.029,13.2950,4.59974,2472.032,2017-10-31T03:51:49Z
2017-10-31T01:51:58Z,42.805,6.029,13.2962,4.59977,2472.047,2017-10-31T03:53:24Z
2017-10-31T01:53:33Z,42.805,6.029,13.2957,4.59976,2472.069,2017-10-31T03:54:59Z
2017-10-31T01:55:08Z,42.805,6.029,13.2962,4.60006,2472.024,2017-10-31T03:56:34Z
2017-10-31T01:56:43Z,42.805,6.029,13.2962,4.59973,2472.032,2017-10-31T03:58:09Z
2017-10-31T01:58:18Z,42.805,6.029,13.2966,4.59977,2472.047,2017-10-31T03:59:44Z
2017-10-31T01:59:52Z,42.805,6.029,13.2960,4.59979,2472.024,2017-10-31T04:01:18Z
2017-10-31T02:01:27Z,42.805,6.029,13.2961,4.59976,2472.047,2017-10-31T04:02:53Z
2017-10-31T02:03:02Z,42.805,6.029,13.2959,4.59975,2472.024,2017-10-31T04:04:28Z
2017-10-31T02:04:37Z,42.805,6.029,13.2971,4.59978,2472.032,2017-10-31T04:06:03Z
2017-10-31T02:06:12Z,42.805,6.029,13.2957,4.59983,2472.047,2017-10-31T04:07:38Z
2017-10-31T02:07:47Z,42.805,6.029,13.2966,4.59983,2472.01,2017-10-31T04:09:13Z
2017-10-31T02:09:21Z,42.805,6.029,13.2961,4.59982,2472.055,2017-10-31T04:10:47Z
2017-10-31T02:10:56Z,42.805,6.029,13.2970,4.59978,2472.047,2017-10-31T04:12:22Z
2017-10-31T02:12:31Z,42.805,6.029,13.2965,4.59981,2472.069,2017-10-31T04:13:57Z
2017-10-31T02:14:06Z,42.805,6.029,13.2964,4.59991,2472.024,2017-10-31T04:15:32Z
2017-10-31T02:15:41Z,42.805,6.029,13.2975,4.59989,2472.047,2017-10-31T04:17:07Z
2017-10-31T02:17:16Z,42.805,6.029,13.2966,4.59999,2472.032,2017-10-31T04:18:42Z
2017-10-31T02:18:50Z,42.805,6.029,13.2957,4.59979,2472.047,2017-10-31T04:20:16Z
2017-10-31T02:20:25Z,42.805,6.029,13.2964,4.59976,2472.069,2017-10-31T04:21:51Z
2017-10-31T02:22:00Z,42.805,6.029,13.2961,4.59974,2472.069,2017-10-31T04:23:26Z
2017-10-31T02:23:35Z,42.805,6.029,13.2955,4.59977,2472.069,2017-10-31T04:25:01Z
2017-10-31T02:25:10Z,42.805,6.029,13.2959,4.59977,2472.024,2017-10-31T04:26:36Z
2017-10-31T02:26:45Z,42.805,6.029,13.2964,4.59972,2472.032,2017-10-31T04:28:11Z
2017-10-31T02:28:19Z,42.805,6.029,13.2960,4.59972,2472.069,2017-10-31T04:29:45Z
2017-10-31T02:29:54Z,42.805,6.029,13.2957,4.59978,2472.069,2017-10-31T04:31:20Z
2017-10-31T02:31:29Z,42.805,6.029,13.2971,4.59983,2472.047,2017-10-31T04:32:55Z
2017-10-31T02:33:04Z,42.805,6.029,13.2959,4.59993,2472.055,2017-10-31T04:34:30Z
2017-10-31T02:34:39Z,42.805,6.029,13.2964,4.59981,2472.055,2017-10-31T04:36:05Z
2017-10-31T02:36:14Z,42.805,6.029,13.2970,4.59983,2472.032,2017-10-31T04:37:40Z
2017-10-31T02:37:48Z,42.805,6.029,13.2973,4.59981,2472.047,2017-10-31T04:39:14Z
2017-10-31T02:39:23Z,42.805,6.029,13.2963,4.59981,2472.069,2017-10-31T04:40:49Z
2017-10-31T02:40:58Z,42.805,6.029,13.2973,4.59973,2472.024,2017-10-31T04:42:24Z
2017-10-31T02:42:33Z,42.805,6.029,13.2954,4.59976,2472.069,2017-10-31T04:43:59Z
2017-10-31T02:44:08Z,42.805,6.029,13.2957,4.59990,2472.01,2017-10-31T04:45:34Z
2017-10-31T02:45:43Z,42.805,6.029,13.2971,4.59979,2472.092,2017-10-31T04:47:09Z
2017-10-31T02:47:17Z,42.805,6.029,13.2975,4.59988,2472.047,2017-10-31T04:48:43Z
2017-10-31T02:48:52Z,42.805,6.029,13.2982,4.59983,2472.055,2017-10-31T04:50:18Z
2017-10-31T02:50:27Z,42.805,6.029,13.2971,4.60011,2472.047,2017-10-31T04:51:53Z
2017-10-31T02:52:02Z,42.805,6.029,13.2961,4.59987,2472.069,2017-10-31T04:53:28Z
2017-10-31T02:53:37Z,42.805,6.029,13.2964,4.59985,2472.055,2017-10-31T04:55:03Z
2017-10-31T02:55:12Z,42.805,6.029,13.2970,4.59996,2472.047,2017-10-31T04:56:38Z
2017-10-31T02:56:47Z,42.805,6.029,13.2951,4.59985,2472.069,2017-10-31T04:58:13Z
2017-10-31T02:58:21Z,42.805,6.029,13.2977,4.60007,2472.069,2017-10-31T04:59:47Z
2017-10-31T02:59:56Z,42.805,6.029,13.2958,4.59995,2472.047,2017-10-31T05:01:22Z
2017-10-31T03:01:31Z,42.805,6.029,13.2965,4.60006,2472.069,2017-10-31T05:02:57Z
2017-10-31T03:03:06Z,42.805,6.029,13.2974,4.59995,2472.069,2017-10-31T05:04:32Z
2017-10-31T03:04:41Z,42.805,6.029,13.2993,4.60022,2472.047,2017-10-31T05:06:07Z
2017-10-31T03:06:16Z,42.805,6.029,13.3001,4.59991,2472.069,2017-10-31T05:07:42Z
2017-10-31T03:07:50Z,42.805,6.029,13.2962,4.59994,2472.047,2017-10-31T05:09:16Z
2017-10-31T03:09:25Z,42.805,6.029,13.2975,4.60016,2472.047,2017-10-31T05:10:51Z
2017-10-31T03:11:00Z,42.805,6.029,13.2986,4.59985,2472.092,2017-10-31T05:12:26Z
2017-10-31T03:12:35Z,42.805,6.029,13.2967,4.59985,2472.032,2017-10-31T05:14:01Z
2017-10-31T03:14:10Z,42.805,6.029,13.2960,4.59990,2472.069,2017-10-31T05:15:36Z
2017-10-31T03:15:45Z,42.805,6.029,13.2972,4.59988,2472.069,2017-10-31T05:17:11Z
2017-10-31T03:17:19Z,42.805,6.029,13.2967,4.59989,2472.047,2017-10-31T05:18:45Z
2017-10-31T03:18:54Z,42.805,6.029,13.2978,4.59989,2472.069,2017-10-31T05:20:20Z
2017-10-31T03:20:29Z,42.805,6.029,13.2998,4.60013,2472.092,2017-10-31T05:21:55Z
2017-10-31T03:22:04Z,42.805,6.029,13.2969,4.59998,2472.069,2017-10-31T05:23:30Z
2017-10-31T03:23:39Z,42.805,6.029,13.2977,4.60005,2472.115,2017-10-31T05:25:05Z
2017-10-31T03:25:14Z,42.805,6.029,13.2979,4.59993,2472.069,2017-10-31T05:26:40Z
2017-10-31T03:26:48Z,42.805,6.029,13.2960,4.60004,2472.069,2017-10-31T05:28:14Z
2017-10-31T03:28:23Z,42.805,6.029,13.2979,4.60006,2472.092,2017-10-31T05:29:49Z
2017-10-31T03:29:58Z,42.805,6.029,13.2971,4.59998,2472.077,2017-10-31T05:31:24Z
2017-10-31T03:31:33Z,42.805,6.029,13.2969,4.59986,2472.115,2017-10-31T05:32:59Z
2017-10-31T03:33:08Z,42.805,6.029,13.2972,4.59987,2472.069,2017-10-31T05:34:34Z
2017-10-31T03:34:43Z,42.805,6.029,13.2968,4.59993,2472.055,2017-10-31T05:36:09Z
2017-10-31T03:36:17Z,42.805,6.029,13.2969,4.60012,2472.069,2017-10-31T05:37:43Z
2017-10-31T03:37:52Z,42.805,6.029,13.2960,4.60006,2472.092,2017-10-31T05:39:18Z
2017-10-31T03:39:27Z,42.805,6.029,13.2969,4.60019,2472.055,2017-10-31T05:40:53Z
2017-10-31T03:41:02Z,42.805,6.029,13.2975,4.60032,2472.047,2017-10-31T05:42:28Z
2017-10-31T03:42:37Z,42.805,6.029,13.2970,4.59988,2472.077,2017-10-31T05:44:03Z
2017-10-31T03:44:12Z,42.805,6.029,13.2978,4.60023,2472.069,2017-10-31T05:45:38Z
2017-10-31T03:45:46Z,42.805,6.029,13.2973,4.60002,2472.084,2017-10-31T05:47:12Z
2017-10-31T03:47:21Z,42.805,6.029,13.2970,4.60018,2472.069,2017-10-31T05:48:47Z
2017-10-31T03:48:56Z,42.805,6.029,13.2979,4.59987,2472.077,2017-10-31T05:50:22Z
2017-10-31T03:50:31Z,42.805,6.029,13.2968,4.59986,2472.092,2017-10-31T05:51:57Z
2017-10-31T03:52:06Z,42.805,6.029,13.2978,4.60002,2472.092,2017-10-31T05:53:32Z
2017-10-31T03:53:41Z,42.805,6.029,13.2975,4.59991,2472.084,2017-10-31T05:55:07Z
2017-10-31T03:55:15Z,42.805,6.029,13.2968,4.59989,2472.069,2017-10-31T05:56:41Z
2017-10-31T03:56:50Z,42.805,6.029,13.2964,4.59981,2472.092,2017-10-31T05:58:16Z
2017-10-31T03:58:25Z,42.805,6.029,13.2962,4.59984,2472.069,2017-10-31T05:59:51Z
2017-10-31T04:00:00Z,42.805,6.029,13.2968,4.59993,2472.092,2017-10-31T06:01:26Z
2017-10-31T04:01:35Z,42.805,6.029,13.2960,4.59979,2472.115,2017-10-31T06:03:01Z
2017-10-31T04:03:10Z,42.805,6.029,13.2989,4.59986,2472.092,2017-10-31T06:04:36Z
2017-10-31T04:04:44Z,42.805,6.029,13.2970,4.59985,2472.055,2017-10-31T06:06:10Z
2017-10-31T04:06:19Z,42.805,6.029,13.2972,4.59988,2472.092,2017-10-31T06:07:45Z
2017-10-31T04:07:54Z,42.805,6.029,13.2970,4.59981,2472.069,2017-10-31T06:09:20Z
2017-10-31T04:09:29Z,42.805,6.029,13.2964,4.59992,2472.077,2017-10-31T06:10:55Z
2017-10-31T04:11:04Z,42.805,6.029,13.2966,4.59988,2472.092,2017-10-31T06:12:30Z
2017-10-31T04:12:39Z,42.805,6.029,13.2964,4.60003,2472.092,2017-10-31T06:14:05Z
2017-10-31T04:14:13Z,42.805,6.029,13.2964,4.60020,2472.055,2017-10-31T06:15:39Z
2017-10-31T04:15:48Z,42.805,6.029,13.2970,4.59995,2472.077,2017-10-31T06:17:14Z
2017-10-31T04:17:23Z,42.805,6.029,13.2971,4.59990,2472.069,2017-10-31T06:18:49Z
2017-10-31T04:18:58Z,42.805,6.029,13.2969,4.59997,2472.092,2017-10-31T06:20:24Z
2017-10-31T04:20:33Z,42.805,6.029,13.2974,4.60009,2472.092,2017-10-31T06:21:59Z
2017-10-31T04:22:08Z,42.805,6.029,13.2973,4.60007,2472.092,2017-10-31T06:23:34Z
2017-10-31T04:23:42Z,42.805,6.029,13.2986,4.60011,2472.115,2017-10-31T06:25:09Z
2017-10-31T04:25:17Z,42.805,6.029,13.2977,4.59999,2472.092,2017-10-31T06:26:43Z
2017-10-31T04:26:52Z,42.805,6.029,13.2973,4.59991,2472.092,2017-10-31T06:28:18Z
2017-10-31T04:28:27Z,42.805,6.029,13.2970,4.60011,2472.092,2017-10-31T06:29:53Z
2017-10-31T04:30:02Z,42.805,6.029,13.2978,4.59991,2472.092,2017-10-31T06:31:28Z
2017-10-31T04:31:37Z,42.805,6.029,13.2984,4.59988,2472.092,2017-10-31T06:33:03Z
2017-10-31T04:33:12Z,42.805,6.029,13.2972,4.59993,2472.092,2017-10-31T06:34:38Z
2017-10-31T04:34:46Z,42.805,6.029,13.2963,4.59994,2472.115,2017-10-31T06:36:12Z
2017-10-31T04:36:21Z,42.805,6.029,13.2970,4.59997,2472.092,2017-10-31T06:37:47Z
2017-10-31T04:37:56Z,42.805,6.029,13.2980,4.59986,2472.092,2017-10-31T06:39:22Z
2017-10-31T04:39:31Z,42.805,6.029,13.2973,4.59986,2472.092,2017-10-31T06:40:57Z
2017-10-31T04:41:06Z,42.805,6.029,13.2975,4.59992,2472.077,2017-10-31T06:42:32Z
2017-10-31T04:42:41Z,42.805,6.029,13.2971,4.59980,2472.069,2017-10-31T06:44:07Z
2017-10-31T04:44:15Z,42.805,6.029,13.2968,4.59992,2472.047,2017-10-31T06:45:41Z
2017-10-31T04:45:50Z,42.805,6.029,13.2972,4.59989,2472.069,2017-10-31T06:47:16Z
2017-10-31T04:47:25Z,42.805,6.029,13.2972,4.59983,2472.092,2017-10-31T06:48:51Z
2017-10-31T04:49:00Z,42.805,6.029,13.2960,4.59987,2472.092,2017-10-31T06:50:26Z
2017-10-31T04:50:35Z,42.805,6.029,13.2968,4.60026,2472.092,2017-10-31T06:52:01Z
2017-10-31T04:52:10Z,42.805,6.029,13.2969,4.60004,2472.107,2017-10-31T06:53:36Z
2017-10-31T04:53:44Z,42.805,6.029,13.2991,4.60049,2472.069,2017-10-31T06:55:10Z
2017-10-31T04:55:19Z,42.805,6.029,13.3000,4.60005,2472.092,2017-10-31T06:56:45Z
2017-10-31T04:56:54Z,42.805,6.029,13.3003,4.60012,2472.092,2017-10-31T06:58:20Z
2017-10-31T04:58:29Z,42.805,6.029,13.2986,4.60001,2472.055,2017-10-31T06:59:55Z
2017-10-31T05:00:04Z,42.805,6.029,13.2984,4.59998,2472.077,2017-10-31T07:01:30Z
2017-10-31T05:01:39Z,42.805,6.029,13.2986,4.60003,2472.092,2017-10-31T07:03:05Z
2017-10-31T05:03:13Z,42.805,6.029,13.3002,4.60018,2472.077,2017-10-31T07:04:39Z
2017-10-31T05:04:48Z,42.805,6.029,13.2991,4.60003,2472.069,2017-10-31T07:06:14Z
2017-10-31T05:06:23Z,42.805,6.029,13.2998,4.60008,2472.069,2017-10-31T07:07:49Z
2017-10-31T05:07:58Z,42.805,6.029,13.3000,4.59998,2472.047,2017-10-31T07:09:24Z
2017-10-31T05:09:33Z,42.805,6.029,13.2993,4.59993,2472.077,2017-10-31T07:10:59Z
2017-10-31T05:11:08Z,42.805,6.029,13.3000,4.60002,2472.092,2017-10-31T07:12:34Z
2017-10-31T05:12:42Z,42.805,6.029,13.3004,4.60007,2472.069,2017-10-31T07:14:08Z
2017-10-31T05:14:17Z,42.805,6.029,13.2981,4.59996,2472.069,2017-10-31T07:15:43Z
2017-10-31T05:15:52Z,42.805,6.029,13.2986,4.60013,2472.069,2017-10-31T07:17:18Z
2017-10-31T05:17:27Z,42.805,6.029,13.2986,4.60005,2472.092,2017-10-31T07:18:53Z
2017-10-31T05:19:02Z,42.805,6.029,13.3015,4.60004,2472.055,2017-10-31T07:20:28Z
2017-10-31T05:20:37Z,42.805,6.029,13.3016,4.60012,2472.069,2017-10-31T07:22:03Z
2017-10-31T05:22:11Z,42.805,6.029,13.3005,4.60012,2472.115,2017-10-31T07:23:37Z
2017-10-31T05:23:46Z,42.805,6.029,13.3000,4.59998,2472.092,2017-10-31T07:25:12Z
2017-10-31T05:25:21Z,42.805,6.029,13.2993,4.59996,2472.092,2017-10-31T07:26:47Z
2017-10-31T05:26:56Z,42.805,6.029,13.3007,4.60008,2472.069,2017-10-31T07:28:22Z
2017-10-31T05:28:31Z,42.805,6.029,13.2993,4.60004,2472.055,2017-10-31T07:29:57Z
2017-10-31T05:30:06Z,42.805,6.029,13.3007,4.59997,2472.069,2017-10-31T07:31:32Z
2017-10-31T05:31:40Z,42.805,6.029,13.3013,4.59989,2472.092,2017-10-31T07:33:06Z
2017-10-31T05:33:15Z,42.805,6.029,13.2989,4.60008,2472.115,2017-10-31T07:34:41Z
2017-10-31T05:34:50Z,42.805,6.029,13.2992,4.60008,2472.092,2017-10-31T07:36:16Z
2017-10-31T05:36:25Z,42.805,6.029,13.2998,4.59995,2472.069,2017-10-31T07:37:51Z
2017-10-31T05:38:00Z,42.805,6.029,13.2975,4.59998,2472.055,2017-10-31T07:39:26Z
2017-10-31T05:39:35Z,42.805,6.029,13.2978,4.59996,2472.047,2017-10-31T07:41:01Z
2017-10-31T05:41:09Z,42.805,6.029,13.2982,4.60000,2472.092,2017-10-31T07:42:35Z
2017-10-31T05:42:44Z,42.805,6.029,13.2979,4.60007,2472.069,2017-10-31T07:44:10Z
2017-10-31T05:44:19Z,42.805,6.029,13.2987,4.60009,2472.069,2017-10-31T07:45:45Z
2017-10-31T05:45:54Z,42.805,6.029,13.2986,4.60019,2472.092,2017-10-31T07:47:20Z
2017-10-31T05:47:29Z,42.805,6.029,13.2979,4.60003,2472.069,2017-10-31T07:48:55Z
2017-10-31T05:49:04Z,42.805,6.029,13.2999,4.60005,2472.069,2017-10-31T07:50:30Z
2017-10-31T05:50:38Z,42.805,6.029,13.3020,4.60000,2472.077,2017-10-31T07:52:04Z
2017-10-31T05:52:13Z,42.805,6.029,13.2998,4.59998,2472.092,2017-10-31T07:53:39Z
2017-10-31T05:53:48Z,42.805,6.029,13.2996,4.60005,2472.069,2017-10-31T07:55:14Z
2017-10-31T05:55:23Z,42.805,6.029,13.2979,4.60004,2472.092,2017-10-31T07:56:49Z
2017-10-31T05:56:58Z,42.805,6.029,13.2986,4.60003,2472.069,2017-10-31T07:58:24Z
2017-10-31T05:58:33Z,42.805,6.029,13.3011,4.60012,2472.069,2017-10-31T07:59:59Z
2017-10-31T06:00:08Z,42.805,6.029,13.2980,4.60008,2472.092,2017-10-31T08:01:34Z
2017-10-31T06:01:42Z,42.805,6.029,13.3015,4.59996,2472.069,2017-10-31T08:03:08Z
2017-10-31T06:03:17Z,42.805,6.029,13.2986,4.59983,2472.047,2017-10-31T08:04:43Z
2017-10-31T06:04:52Z,42.805,6.029,13.2975,4.59985,2472.092,2017-10-31T08:06:18Z
2017-10-31T06:06:27Z,42.805,6.029,13.2982,4.59981,2472.069,2017-10-31T08:07:53Z
2017-10-31T06:08:02Z,42.805,6.029,13.2979,4.59990,2472.055,2017-10-31T08:09:28Z
2017-10-31T06:09:37Z,42.805,6.029,13.2972,4.60003,2472.069,2017-10-31T08:11:03Z
2017-10-31T06:11:11Z,42.805,6.029,13.2976,4.59992,2472.069,2017-10-31T08:12:37Z
2017-10-31T06:12:46Z,42.805,6.029,13.2978,4.60003,2472.092,2017-10-31T08:14:12Z
2017-10-31T06:14:21Z,42.805,6.029,13.2973,4.60023,2472.115,2017-10-31T08:15:47Z
2017-10-31T06:15:56Z,42.805,6.029,13.2985,4.60006,2472.092,2017-10-31T08:17:22Z
2017-10-31T06:17:31Z,42.805,6.029,13.3029,4.59993,2472.077,2017-10-31T08:18:57Z
2017-10-31T06:19:06Z,42.805,6.029,13.3009,4.60000,2472.092,2017-10-31T08:20:32Z
2017-10-31T06:20:40Z,42.805,6.029,13.2994,4.59993,2472.069,2017-10-31T08:22:06Z
2017-10-31T06:22:15Z,42.805,6.029,13.3032,4.59989,2472.069,2017-10-31T08:23:41Z
2017-10-31T06:23:50Z,42.805,6.029,13.3009,4.60000,2472.069,2017-10-31T08:25:16Z
2017-10-31T06:25:25Z,42.805,6.029,13.3007,4.60001,2472.069,2017-10-31T08:26:51Z
2017-10-31T06:27:00Z,42.805,6.029,13.2996,4.59996,2472.069,2017-10-31T08:28:26Z
2017-10-31T06:28:35Z,42.805,6.029,13.2995,4.59981,2472.115,2017-10-31T08:30:01Z
2017-10-31T06:30:09Z,42.805,6.029,13.2978,4.59990,2472.069,2017-10-31T08:31:35Z
2017-10-31T06:31:44Z,42.805,6.029,13.2979,4.59988,2472.092,2017-10-31T08:33:10Z
2017-10-31T06:33:19Z,42.805,6.029,13.2986,4.59998,2472.115,2017-10-31T08:34:45Z
2017-10-31T06:34:54Z,42.805,6.029,13.2988,4.60006,2472.092,2017-10-31T08:36:20Z
2017-10-31T06:36:29Z,42.805,6.029,13.2982,4.60001,2472.047,2017-10-31T08:37:55Z
2017-10-31T06:38:04Z,42.805,6.029,13.2979,4.59999,2472.092,2017-10-31T08:39:30Z
2017-10-31T06:39:38Z,42.805,6.029,13.2993,4.59989,2472.047,2017-10-31T08:41:04Z
2017-10-31T06:41:13Z,42.805,6.029,13.2991,4.59988,2472.047,2017-10-31T08:42:39Z
2017-10-31T06:42:48Z,42.805,6.029,13.2993,4.59998,2472.092,2017-10-31T08:44:14Z
2017-10-31T06:44:23Z,42.805,6.029,13.2977,4.60014,2472.055,2017-10-31T08:45:49Z
2017-10-31T06:45:58Z,42.805,6.029,13.2987,4.60007,2472.047,2017-10-31T08:47:24Z
2017-10-31T06:47:33Z,42.805,6.029,13.2998,4.60048,2472.092,2017-10-31T08:48:59Z
2017-10-31T06:49:07Z,42.805,6.029,13.2967,4.59990,2472.069,2017-10-31T08:50:33Z
2017-10-31T06:50:42Z,42.805,6.029,13.2975,4.59990,2472.069,2017-10-31T08:52:08Z
2017-10-31T06:52:17Z,42.805,6.029,13.2971,4.60015,2472.047,2017-10-31T08:53:43Z
2017-10-31T06:53:52Z,42.805,6.029,13.2977,4.59992,2472.069,2017-10-31T08:55:18Z
2017-10-31T06:55:27Z,42.805,6.029,13.3011,4.60012,2472.069,2017-10-31T08:56:53Z
2017-10-31T06:57:02Z,42.805,6.029,13.3009,4.60018,2472.069,2017-10-31T08:58:28Z
2017-10-31T06:58:36Z,42.805,6.029,13.2976,4.60014,2472.047,2017-10-31T09:00:02Z
2017-10-31T07:00:11Z,42.805,6.029,13.2988,4.60011,2472.092,2017-10-31T09:01:37Z
2017-10-31T07:01:46Z,42.805,6.029,13.2964,4.60020,2472.024,2017-10-31T09:03:12Z
2017-10-31T07:03:21Z,42.805,6.029,13.2973,4.60010,2472.055,2017-10-31T09:04:47Z
2017-10-31T07:04:56Z,42.805,6.029,13.2977,4.59992,2472.069,2017-10-31T09:06:22Z
2017-10-31T07:06:31Z,42.805,6.029,13.2986,4.59983,2472.107,2017-10-31T09:07:57Z
2017-10-31T07:08:05Z,42.805,6.029,13.2980,4.59991,2472.055,2017-10-31T09:09:31Z
2017-10-31T07:09:40Z,42.805,6.029,13.2973,4.60009,2472.069,2017-10-31T09:11:06Z
2017-10-31T07:11:15Z,42.805,6.029,13.2975,4.59998,2472.069,2017-10-31T09:12:41Z
2017-10-31T07:12:50Z,42.805,6.029,13.3006,4.60006,2472.047,2017-10-31T09:14:16Z
2017-10-31T07:14:25Z,42.805,6.029,13.3023,4.59996,2472.069,2017-10-31T09:15:51Z
2017-10-31T07:16:00Z,42.805,6.029,13.3003,4.60000,2472.069,2017-10-31T09:17:26Z
2017-10-31T07:17:34Z,42.805,6.029,13.2997,4.59995,2472.069,2017-10-31T09:19:00Z
2017-10-31T07:19:09Z,42.805,6.029,13.2986,4.60026,2472.047,2017-10-31T09:20:35Z
2017-10-31T07:20:44Z,42.805,6.029,13.2978,4.59995,2472.092,2017-10-31T09:22:10Z
2017-10-31T07:22:19Z,42.805,6.029,13.2970,4.59993,2472.069,2017-10-31T09:23:45Z
2017-10-31T07:23:54Z,42.805,6.029,13.2970,4.60003,2472.047,2017-10-31T09:25:20Z
2017-10-31T07:25:29Z,42.805,6.029,13.2978,4.59985,2472.047,2017-10-31T09:26:55Z
2017-10-31T07:27:03Z,42.805,6.029,13.2968,4.59995,2472.047,2017-10-31T09:28:29Z
2017-10-31T07:28:38Z,42.805,6.029,13.2973,4.60026,2472.047,2017-10-31T09:30:04Z
2017-10-31T07:30:13Z,42.805,6.029,13.2982,4.60021,2472.069,2017-10-31T09:31:39Z
2017-10-31T07:31:48Z,42.805,6.029,13.2980,4.59983,2472.024,2017-10-31T09:33:14Z
2017-10-31T07:33:23Z,42.805,6.029,13.2972,4.60006,2472.032,2017-10-31T09:34:49Z
2017-10-31T07:34:58Z,42.805,6.029,13.2969,4.60017,2472.032,2017-10-31T09:36:24Z
2017-10-31T07:36:32Z,42.805,6.029,13.2977,4.60015,2472.069,2017-10-31T09:37:59Z
2017-10-31T07:38:07Z,42.805,6.029,13.2991,4.60021,2472.047,2017-10-31T09:39:33Z
2017-10-31T07:39:42Z,42.805,6.029,13.3023,4.60049,2472.069,2017-10-31T09:41:08Z
2017-10-31T07:41:17Z,42.805,6.029,13.2999,4.60009,2472.069,2017-10-31T09:42:43Z
2017-10-31T07:42:52Z,42.805,6.029,13.2995,4.60005,2472.069,2017-10-31T09:44:18Z
2017-10-31T07:44:27Z,42.805,6.029,13.2996,4.60031,2472.032,2017-10-31T09:45:53Z
2017-10-31T07:46:01Z,42.805,6.029,13.3008,4.60023,2472.047,2017-10-31T09:47:28Z